Theta_e
325 320 317 315 316 313 310 304 296 294 286 286 284 284 288 293 292 292 293 294 294 297 299 298 297 301 300 298 302 305 306 297 303 288 291 300 318 326 328 336 340 343 346 348 347 346 348 346 346 351 352 352 352 351 351 350 349 349 349 349 349 348 349 350 349 349 349 348 349 349 349 347 349 347 347 346 346 345 344 343 343 342 341 341 339 338 338 337 337 336 337 339 338 338 337 338 338
322 320 317 319 314 313 307 299 291 286 284 284 287 286 291 291 291 292 293 294 295 299 298 296 297 302 306 306 307 306 307 307 310 305 317 323 322 322 327 338 342 343 346 348 347 347 346 346 348 352 351 351 352 351 351 350 349 349 349 348 348 347 347 347 347 348 347 348 347 348 348 348 348 347 346 345 345 343 343 343 342 341 341 341 339 338 337 336 336 336 336 339 338 337 337 337 338
323 318 315 313 311 308 305 297 293 282 282 280 285 287 290 290 291 292 294 296 298 297 296 297 297 298 301 302 304 300 299 308 311 315 318 321 317 324 325 334 341 344 347 347 347 346 346 345 346 351 350 352 351 351 351 350 349 349 349 348 348 347 346 346 346 346 347 347 347 347 348 347 347 346 345 345 344 343 343 342 341 341 341 340 339 337 335 335 335 336 338 338 337 336 336 336 336
318 318 315 309 307 303 297 293 287 283 284 282 284 288 290 290 291 293 295 297 296 296 298 299 296 298 301 300 301 301 300 306 314 313 316 317 312 318 324 331 340 345 345 347 347 346 346 345 346 350 351 350 350 351 351 350 349 349 349 349 348 347 346 346 346 346 347 346 346 347 347 346 345 346 345 344 343 343 343 342 341 342 341 340 339 337 335 334 335 335 336 336 335 335 335 335 335
313 319 314 307 303 302 295 291 286 282 283 282 283 288 290 290 293 293 296 295 295 295 297 297 296 300 301 300 300 296 298 304 308 319 316 316 321 325 327 330 342 344 344 346 347 346 345 344 346 349 351 351 350 351 351 350 349 349 350 349 347 347 346 346 345 345 347 347 347 347 346 345 345 346 345 344 344 343 342 342 341 340 340 339 338 337 335 333 332 332 334 334 335 335 334 334 335
312 311 315 308 304 305 294 287 289 285 287 286 287 289 290 292 293 293 296 296 296 294 295 295 296 299 304 307 306 306 314 301 308 319 318 322 325 328 330 330 342 343 343 345 346 346 345 343 345 349 350 349 350 350 350 350 350 350 349 348 347 346 346 345 346 346 346 346 347 346 346 345 344 345 344 343 343 343 342 341 340 339 339 338 338 337 335 333 331 331 332 333 334 334 334 333 334
312 306 306 303 303 299 291 286 286 285 292 289 290 290 292 292 294 293 296 297 297 296 295 300 303 301 302 306 309 315 318 319 319 320 321 324 326 329 332 330 342 341 341 344 345 346 344 343 347 350 350 349 350 351 349 350 349 349 349 347 347 347 346 346 346 346 346 346 346 346 345 344 344 344 343 343 342 342 341 341 339 339 338 338 337 337 336 333 331 330 330 331 333 332 333 333 334
314 306 302 295 295 291 288 287 288 285 292 291 292 292 291 293 293 295 294 294 296 295 296 296 297 296 299 304 303 314 320 320 321 321 324 325 328 331 331 330 337 338 342 344 344 343 344 342 347 349 349 350 350 350 350 350 349 349 349 347 347 347 346 346 346 346 346 346 346 345 345 344 344 343 343 342 341 341 341 340 339 338 338 337 337 337 336 333 330 328 328 329 330 330 330 331 333
309 305 301 296 290 289 286 288 290 289 293 293 294 294 300 294 293 293 295 295 296 295 295 296 295 295 298 306 305 308 308 306 324 324 324 326 328 330 336 337 339 339 343 345 344 343 342 340 345 348 347 349 349 349 349 349 349 349 348 348 347 347 347 346 346 346 346 346 346 345 344 344 344 343 343 342 341 341 340 340 339 339 337 337 337 337 336 334 331 328 326 327 327 328 329 330 331
305 300 294 294 290 288 285 288 286 291 292 293 293 296 295 295 295 293 294 295 296 294 296 296 294 296 298 299 297 298 300 301 309 323 324 325 327 331 333 336 342 343 344 345 346 346 344 343 342 345 346 348 349 349 349 347 349 348 348 347 347 347 347 346 345 346 346 346 346 345 344 344 343 343 342 342 342 341 341 340 339 338 337 336 337 336 336 334 332 328 325 323 325 326 327 328 330
298 296 297 291 287 285 285 287 289 292 293 293 294 295 296 295 294 294 294 295 294 295 296 296 297 296 294 295 294 301 302 301 309 319 322 325 327 329 330 332 338 344 344 344 345 346 345 343 341 341 343 345 346 348 348 348 349 349 349 349 348 348 347 346 346 346 346 346 346 345 344 344 343 342 342 342 341 340 340 340 338 338 337 336 336 335 335 334 332 329 325 322 321 321 324 326 329
295 293 291 286 287 285 285 288 289 290 292 292 296 294 295 295 294 295 295 295 295 295 296 296 296 295 295 294 296 298 301 302 303 303 322 325 327 327 329 330 332 337 342 342 343 343 343 343 344 341 339 340 342 344 344 346 347 348 348 349 348 348 347 346 347 346 346 346 345 344 344 343 342 342 342 341 340 340 340 339 338 337 336 335 334 334 334 333 331 329 326 323 320 320 321 325 326
295 292 289 286 288 286 287 287 288 290 290 292 293 297 295 295 295 294 294 293 293 294 296 298 296 296 294 295 296 298 300 303 303 306 323 325 326 326 328 329 330 332 336 340 342 341 342 343 343 345 340 336 337 339 339 342 343 345 347 348 347 347 347 347 346 346 346 346 345 344 344 343 342 342 341 341 341 340 339 338 337 337 336 335 334 334 333 332 330 329 327 324 320 321 323 323 322
293 293 288 290 285 287 287 287 287 288 288 292 292 294 296 295 295 293 294 294 295 294 298 299 298 296 295 295 297 295 298 301 303 311 323 325 326 326 326 326 325 327 330 333 333 334 338 342 343 343 342 343 342 336 334 337 340 342 343 341 342 344 345 345 345 344 345 343 343 341 340 339 340 341 341 341 340 339 339 339 337 336 335 334 333 333 332 331 330 329 328 326 321 320 321 320 320
297 294 288 286 284 286 288 287 289 285 288 290 295 297 296 298 294 294 295 293 296 298 297 299 300 298 293 294 294 296 300 303 305 315 325 326 324 319 318 317 315 315 316 320 322 325 328 334 343 343 343 343 342 342 342 339 336 338 339 337 338 340 342 341 341 342 340 340 339 337 336 334 334 335 335 336 338 336 335 333 337 336 335 334 333 332 332 331 330 329 328 326 324 321 319 318 318
299 294 288 288 286 285 288 287 287 287 290 292 295 293 294 297 296 297 296 296 296 298 298 298 299 297 296 294 297 299 303 305 313 322 321 312 309 309 309 310 310 312 313 314 315 315 316 319 326 337 340 342 342 342 342 342 334 332 335 336 336 337 337 338 338 338 333 332 332 331 330 331 329 330 328 331 331 334 332 331 334 336 335 334 333 332 331 331 330 329 328 326 324 322 321 320 320
300 294 288 281 286 285 288 288 287 287 289 291 293 296 295 294 297 297 297 296 296 296 297 298 298 299 297 298 300 303 304 308 311 309 307 306 305 306 306 308 309 310 312 312 313 314 316 316 317 319 325 336 342 341 341 341 338 329 330 329 331 333 333 333 335 329 325 324 326 325 325 331 329 330 330 329 325 329 324 326 332 335 336 335 333 332 332 331 330 330 328 326 325 323 321 318 317
294 289 284 285 285 288 289 290 288 290 292 292 295 294 293 294 296 298 296 296 296 296 297 298 300 299 299 300 302 304 305 306 307 307 305 304 303 303 304 305 307 307 308 310 311 313 314 316 316 317 317 318 328 340 341 340 337 334 336 333 334 331 329 326 328 331 328 330 324 327 332 331 330 329 329 329 328 327 325 324 326 331 335 333 332 333 332 331 330 330 329 328 326 324 319 307 306
291 286 284 286 285 292 291 292 291 292 293 292 294 292 293 295 294 297 293 294 294 294 295 296 297 299 301 302 302 303 304 305 306 305 304 303 303 303 303 303 305 306 308 308 309 311 312 314 315 315 317 317 319 331 341 341 338 338 339 338 337 331 330 330 332 329 331 330 330 332 333 333 332 328 328 328 327 322 326 322 325 329 332 331 330 332 332 332 331 330 329 329 327 320 311 308 306
293 287 285 287 288 293 293 293 294 294 293 293 293 295 293 296 296 297 295 291 293 293 294 295 295 297 298 300 301 302 303 303 304 304 304 303 303 303 303 303 304 303 305 306 308 310 311 312 313 314 316 317 316 325 338 341 339 340 339 338 336 335 333 333 333 333 332 331 332 333 334 333 333 330 327 324 324 325 324 321 323 324 326 326 326 327 329 331 332 328 327 323 318 313 311 310 310
294 288 285 291 290 291 296 293 295 293 293 293 293 293 294 294 294 296 291 293 293 292 294 294 296 297 298 299 300 300 301 302 302 303 303 302 302 303 304 303 303 305 304 306 307 309 310 311 312 313 315 318 316 318 330 339 339 340 339 338 337 335 334 334 334 333 331 330 332 333 334 333 334 332 328 328 327 326 326 326 325 326 324 322 322 321 319 319 317 315 314 313 311 312 312 311 312
289 292 289 290 291 293 295 294 293 292 292 292 292 293 294 297 296 293 293 291 288 293 295 294 298 298 299 299 299 300 300 300 301 302 301 301 302 302 303 303 304 304 305 306 307 308 309 311 310 312 314 317 317 316 323 329 338 339 337 338 336 336 333 332 332 333 331 330 331 331 332 332 330 329 328 328 327 328 327 326 327 325 324 323 320 320 319 317 315 314 315 314 312 312 312 310 308
291 292 292 292 292 294 295 294 294 293 294 292 292 294 295 294 295 293 293 293 292 294 296 297 298 299 300 300 299 299 299 299 300 301 301 301 301 301 302 302 304 307 307 307 306 307 309 309 310 311 312 316 317 316 327 331 333 333 333 334 336 334 333 331 331 331 332 332 332 330 331 330 328 328 328 327 327 326 325 325 326 326 324 323 321 321 322 322 317 315 314 313 310 311 311 309 309
290 292 293 297 294 296 294 296 293 291 292 294 294 295 296 294 295 294 295 295 296 296 297 297 298 299 299 298 298 299 299 299 300 301 301 301 301 302 302 303 306 309 309 307 306 306 308 309 310 311 313 317 316 330 329 328 328 327 326 325 328 326 327 327 327 327 327 326 326 328 328 329 329 328 328 328 328 328 327 327 327 325 325 326 325 325 324 322 321 317 316 314 314 313 313 311 310
292 294 293 295 295 295 294 293 292 292 294 294 295 295 294 293 295 295 295 295 296 296 297 297 297 297 297 298 298 298 299 299 299 299 300 299 300 302 304 305 307 308 307 307 307 309 312 313 313 315 316 319 325 327 325 325 324 323 323 323 323 321 323 323 323 324 324 324 324 324 325 325 324 322 322 322 322 321 321 321 322 321 322 322 324 323 324 323 322 321 319 318 317 316 314 314 315
294 295 294 294 295 295 294 295 293 293 296 294 295 293 292 292 295 294 294 295 296 296 296 296 297 296 296 296 297 297 298 298 298 298 299 298 300 303 305 305 305 306 306 307 308 311 313 316 320 322 323 325 325 323 322 321 320 319 319 319 319 319 320 320 321 320 321 322 321 321 321 322 321 320 319 319 319 318 318 318 318 318 318 319 320 319 320 321 320 320 319 318 316 314 312 312 312
294 294 294 295 295 294 294 295 294 293 296 294 294 292 294 293 295 291 294 295 295 296 295 295 296 295 295 296 296 296 297 296 298 298 298 298 299 302 304 304 304 305 306 306 308 310 314 317 320 320 320 321 322 320 319 317 316 315 315 316 316 315 317 317 316 317 318 319 319 320 320 319 319 319 319 318 317 317 316 316 315 315 314 315 316 316 317 317 316 316 315 314 311 308 307 308 308
294 294 295 293 291 293 293 293 293 294 296 293 294 293 292 292 294 291 294 295 296 295 294 294 294 294 295 295 295 296 296 296 296 297 297 298 301 302 302 303 304 304 304 305 308 311 314 315 317 319 319 319 319 318 316 315 313 312 312 312 311 312 312 311 312 313 313 315 316 316 317 317 316 316 316 315 315 314 313 313 313 313 313 312 312 311 310 311 310 309 308 308 306 304 303 302 303
295 295 293 290 291 294 293 294 293 293 295 293 294 294 291 291 290 291 295 296 295 294 293 293 294 294 294 294 294 294 294 295 295 296 296 298 301 303 303 304 304 305 304 304 309 311 312 313 314 315 316 315 315 315 313 313 311 310 310 309 309 309 309 309 308 309 309 310 311 311 311 312 312 311 310 310 309 310 309 308 308 309 310 310 308 306 305 305 305 305 304 305 303 302 300 299 301
296 293 292 291 289 289 294 294 293 294 295 292 294 286 287 288 291 292 295 295 294 293 293 293 293 293 293 293 293 293 294 294 294 295 296 298 301 303 303 304 305 305 305 308 310 309 311 312 312 312 311 311 310 310 309 308 308 307 307 307 307 307 307 306 306 306 306 306 307 307 307 307 307 307 306 305 305 304 303 303 303 304 305 307 307 303 300 300 299 299 299 298 298 297 297 297 298
293 292 289 287 286 286 292 292 292 294 294 292 294 287 286 288 289 291 294 295 295 293 293 293 293 293 292 292 292 293 294 294 295 295 297 299 301 303 303 304 305 306 307 308 308 309 310 310 310 309 308 307 306 306 306 305 306 305 305 304 305 305 304 304 304 305 305 305 305 305 305 305 305 305 305 304 303 303 302 301 301 301 302 303 303 302 299 297 296 295 296 295 294 294 294 295 295
290 289 284 283 287 284 290 292 293 294 294 293 293 285 289 292 291 292 294 294 294 293 293 293 293 293 293 292 292 292 293 294 295 296 297 299 301 302 303 304 305 306 307 307 307 308 308 308 308 307 307 305 305 304 304 303 303 302 302 303 302 302 302 301 302 302 302 303 304 304 303 302 302 302 301 301 300 299 299 298 298 299 299 300 300 300 300 297 295 294 294 293 291 291 292 292 292
284 288 282 286 286 284 290 294 292 292 292 293 293 288 287 291 289 291 293 294 293 293 292 292 293 293 293 293 292 291 292 292 294 295 297 298 301 302 303 304 305 307 308 307 306 306 306 307 307 305 304 304 303 302 301 300 300 299 299 299 298 299 299 298 298 299 299 299 299 299 299 299 298 297 296 297 296 296 296 295 296 296 297 297 296 297 297 297 295 293 291 291 290 288 289 290 292
283 285 286 283 287 286 286 289 292 292 292 289 291 289 288 290 289 291 292 293 292 292 292 293 293 293 293 292 292 291 291 292 293 294 296 298 301 302 302 304 306 307 307 307 306 306 305 305 305 304 303 303 301 300 299 298 297 297 296 296 296 295 295 296 296 296 296 296 295 295 295 295 295 295 294 294 294 294 294 294 294 295 295 294 293 293 293 294 293 291 289 289 289 288 288 288 291
283 286 286 286 287 287 288 289 293 292 292 290 289 288 290 292 290 291 292 292 293 293 293 293 292 292 292 292 292 291 291 291 293 293 295 298 299 301 303 305 306 307 307 306 306 306 305 304 304 303 302 302 300 299 298 297 296 295 295 294 293 293 293 294 294 294 294 294 294 294 294 293 294 294 294 293 293 292 292 292 292 292 293 292 291 291 290 290 290 290 289 288 289 288 287 287 288
287 286 284 283 288 286 287 288 290 293 290 289 288 289 291 292 292 290 291 292 292 294 292 291 292 292 292 292 292 291 291 291 292 293 295 296 298 300 302 304 304 306 307 306 305 305 304 303 303 302 301 300 299 298 297 296 295 294 292 292 291 292 292 292 293 293 293 293 293 293 293 292 293 292 292 292 292 291 290 290 289 290 290 289 288 288 287 288 288 288 288 287 287 287 287 287 287
288 287 286 286 287 287 288 290 291 291 291 288 290 290 289 290 291 291 292 292 291 291 291 291 292 292 292 292 292 291 290 291 292 294 294 296 298 300 302 303 303 304 305 306 305 304 304 303 302 302 301 301 299 297 296 295 293 292 291 290 289 290 290 291 291 291 291 292 292 292 292 291 291 291 290 289 289 289 288 288 288 288 288 288 287 286 287 287 287 287 287 287 286 286 285 286 286
290 289 287 287 285 287 288 293 292 291 291 286 286 287 289 290 292 292 291 290 291 292 291 291 292 292 292 292 291 290 291 291 292 293 294 295 297 300 301 302 302 302 302 303 303 303 303 302 301 300 301 300 299 297 296 295 294 292 291 289 289 289 289 288 289 290 290 291 290 290 290 289 289 288 288 288 288 287 287 287 286 286 286 286 286 286 286 287 286 286 286 286 286 285 284 285 286
288 288 286 286 286 287 289 290 290 291 291 288 287 288 290 291 292 293 291 292 293 293 294 294 293 292 291 291 291 290 290 291 292 293 292 293 296 299 300 301 301 302 302 301 301 301 301 300 299 298 297 296 295 295 294 292 292 291 290 290 289 288 289 290 289 289 289 289 289 288 288 287 287 287 287 287 287 286 286 286 285 286 285 286 285 285 285 285 285 285 284 284 283 284 284 285 285
287 286 285 286 284 288 286 287 289 291 290 287 287 288 290 292 293 294 295 292 291 290 293 293 293 293 292 292 292 291 290 291 291 292 293 293 295 298 299 300 300 301 300 300 300 298 298 297 298 297 296 294 293 293 292 291 291 290 290 290 290 289 288 289 288 288 287 287 286 287 287 287 287 286 286 286 286 286 285 285 285 285 285 285 285 284 284 284 284 284 284 284 282 282 282 283 285
286 288 286 285 287 286 288 287 291 289 290 288 289 289 290 292 293 294 290 289 290 291 291 291 291 292 292 291 291 292 291 291 291 291 292 293 294 297 298 299 299 300 299 299 299 298 297 296 297 296 294 293 292 292 291 291 290 289 289 289 289 288 288 287 286 285 286 286 286 286 286 286 286 286 286 286 286 286 285 285 285 285 285 284 285 284 283 283 283 283 283 283 282 281 281 280 283
287 286 290 289 287 289 287 288 290 284 284 285 289 282 279 282 286 290 289 286 288 288 289 290 290 290 291 291 291 290 291 292 292 292 292 292 294 295 297 298 298 299 299 299 298 297 296 296 295 294 293 292 291 291 291 290 289 288 287 286 285 284 283 283 283 283 284 284 284 285 285 286 286 286 285 286 286 286 285 285 285 284 284 284 284 284 283 283 283 283 283 283 282 282 281 280 280
285 287 288 290 289 288 288 288 287 282 280 287 288 283 281 282 287 287 286 287 288 288 288 289 288 289 290 291 291 290 290 290 291 292 291 291 292 294 296 297 297 298 298 299 297 295 295 295 294 292 291 291 291 290 290 289 288 287 286 285 285 284 283 283 284 284 284 284 285 284 284 285 285 285 285 285 285 285 284 284 284 284 284 284 284 283 283 282 283 283 283 283 282 283 281 280 279
284 286 288 289 288 288 287 287 288 284 283 286 287 282 282 286 286 292 290 288 289 289 289 288 288 288 289 290 290 290 290 290 291 291 291 291 291 293 295 296 296 297 298 297 296 295 293 292 291 291 291 291 290 289 287 287 286 286 286 285 285 284 284 284 284 284 284 285 284 284 284 284 284 284 284 284 284 284 284 284 283 283 283 283 283 282 282 281 282 283 283 282 283 282 281 280 279
285 289 288 288 289 286 286 287 284 285 284 282 283 286 284 282 282 285 287 288 291 292 291 288 288 288 289 289 290 290 290 290 291 291 290 290 291 292 293 294 295 296 297 296 295 295 294 292 292 292 290 289 287 287 286 286 287 286 286 285 284 285 285 285 285 285 284 284 284 283 284 284 284 284 284 284 283 284 284 283 283 283 283 282 283 282 282 281 281 280 280 281 281 281 282 281 280
290 289 289 288 287 286 283 282 286 281 281 281 283 286 281 285 283 286 285 286 289 291 291 289 289 289 288 288 289 289 289 289 290 291 290 290 290 291 292 294 294 294 295 295 294 293 292 292 290 289 287 287 287 286 286 286 287 287 285 285 284 284 284 284 284 283 283 283 283 283 283 283 283 283 283 283 283 283 283 283 283 282 282 282 282 281 281 281 281 280 280 280 280 280 280 281 280
291 290 290 287 284 282 280 280 279 281 277 283 285 286 286 281 283 287 286 287 288 288 287 287 288 288 288 289 289 289 289 289 289 290 289 289 289 290 292 293 293 293 293 293 292 291 291 290 288 287 286 286 286 286 286 286 286 286 285 285 285 284 283 283 283 282 282 283 282 282 282 283 283 283 283 283 283 283 283 283 282 282 282 282 281 281 280 280 280 279 279 279 279 279 278 279 280
292 285 283 284 284 280 277 275 277 276 277 279 285 287 287 281 279 283 288 287 287 289 288 286 287 288 289 288 288 288 289 289 289 289 287 287 288 289 292 292 292 292 291 291 291 290 289 288 287 285 285 286 286 286 286 286 286 286 285 285 284 284 284 283 282 282 282 282 282 282 282 283 282 283 282 282 282 282 282 281 281 281 281 280 280 280 280 280 280 279 279 279 278 278 278 279 278
289 287 288 283 276 274 274 272 275 274 278 281 280 284 282 284 287 285 287 290 291 290 291 290 288 288 289 288 288 288 288 288 288 288 287 287 288 289 289 291 291 290 291 290 289 289 288 288 286 285 284 285 286 286 286 286 286 286 286 285 285 284 284 283 283 283 283 283 283 282 282 282 281 282 281 281 281 280 281 280 280 280 280 280 279 279 279 279 279 279 279 278 278 277 277 277 277
287 288 284 281 275 274 268 269 269 272 276 279 281 283 282 281 286 292 295 295 289 287 287 288 289 289 289 289 288 288 287 287 287 287 286 287 288 288 289 290 291 290 290 289 288 288 288 287 286 285 284 285 286 286 286 286 285 286 285 285 285 285 284 284 283 283 283 283 283 283 282 282 282 282 281 281 281 280 280 280 280 279 279 279 279 279 278 278 279 278 278 278 277 277 277 276 276
290 287 290 286 279 273 272 271 274 275 274 276 278 279 276 279 284 287 286 285 285 285 286 287 287 288 288 288 288 287 286 286 286 286 286 287 287 288 289 290 290 290 289 288 288 288 288 287 286 285 285 285 286 286 286 286 286 285 285 285 285 285 284 284 283 284 283 282 282 282 282 282 282 281 281 281 280 280 279 280 279 279 279 278 278 278 279 278 278 278 277 277 277 277 276 276 276
285 284 286 283 285 283 281 274 272 272 272 273 275 279 280 284 285 284 284 284 285 284 286 286 286 286 287 287 287 287 287 286 285 286 286 286 287 287 288 289 289 289 288 288 288 288 287 287 286 285 285 285 286 286 286 286 286 285 285 285 285 285 284 284 284 283 283 283 283 283 282 281 281 281 280 280 280 280 279 279 279 278 278 278 277 277 277 277 277 276 276 276 276 278 276 276 275
285 287 285 287 286 288 281 275 276 275 272 278 275 280 280 283 286 285 285 285 286 285 285 285 285 285 286 287 287 287 287 286 285 286 286 286 286 286 287 288 288 288 287 287 287 287 287 286 286 285 285 286 286 286 286 285 285 285 285 285 285 284 284 283 283 282 282 282 283 282 282 281 281 281 281 280 280 279 279 278 277 277 277 277 277 276 276 276 276 276 276 275 275 275 276 275 275
286 283 286 287 286 285 282 277 270 268 272 275 277 280 280 281 282 281 285 284 285 284 283 284 284 284 286 286 286 287 286 286 286 286 286 286 286 286 287 287 287 287 286 286 286 286 287 287 286 286 286 286 286 286 286 286 285 285 284 284 284 284 283 283 283 283 283 282 282 282 281 281 280 281 281 280 279 278 278 278 277 277 276 276 276 276 275 275 275 275 275 275 274 274 274 274 275
288 285 287 289 281 280 280 275 273 270 271 273 276 277 279 282 285 282 285 284 287 287 283 283 284 284 285 286 286 286 286 286 285 285 285 285 286 286 286 286 286 286 285 285 285 286 286 286 286 287 286 286 286 286 286 285 285 285 285 284 284 283 283 283 283 283 283 282 282 281 280 280 280 280 280 279 278 277 277 277 276 276 276 276 275 275 275 275 274 274 275 274 274 273 273 273 273
287 288 287 285 282 275 278 281 275 275 272 269 276 276 282 283 285 285 288 288 288 288 283 285 286 286 286 286 286 286 286 286 286 286 286 285 286 286 286 286 285 285 284 284 285 285 285 286 286 286 286 285 285 285 285 284 284 285 284 283 283 283 283 283 283 283 282 282 281 281 280 280 280 279 278 278 277 277 277 276 276 276 275 275 275 274 274 274 274 274 274 273 273 272 272 272 272
284 285 284 285 281 283 281 280 278 277 270 269 274 278 277 280 286 288 291 290 289 288 288 287 287 287 287 287 287 287 286 286 286 286 286 285 285 285 285 285 285 284 284 284 285 285 285 285 285 285 285 284 284 284 284 284 284 284 284 283 283 282 282 282 282 282 282 281 280 280 280 279 279 278 278 277 277 277 276 276 275 275 275 274 274 274 274 273 273 273 273 272 272 272 271 271 272
289 289 286 288 284 280 277 279 279 274 277 275 270 279 283 283 285 288 289 288 288 288 289 289 288 287 287 287 287 287 287 287 287 286 286 285 285 284 284 284 283 283 283 283 284 284 284 285 285 285 285 284 284 284 284 284 284 284 283 283 282 282 282 282 281 281 281 281 281 280 279 278 278 278 277 277 277 277 276 276 275 274 274 274 273 273 273 273 272 272 272 273 272 271 270 270 271
Wind_Speed
7 6 5 3 1 2 1 5 2 3 5 1 1 2 1 0 1 2 1 3 3 2 1 2 4 4 3 4 11 6 2 1 1 2 2 1 1 1 2 3 4 8 7 4 3 5 7 7 8 9 10 12 12 12 12 11 11 11 11 11 11 11 13 12 12 13 12 12 13 13 13 13 14 15 15 15 15 14 15 15 14 14 14 14 14 14 14 14 14 14 14 14 13 13 13 12 12
4 5 4 1 2 2 0 2 3 1 6 4 1 1 1 2 3 1 2 1 1 0 0 4 6 10 12 11 8 3 6 3 1 1 0 1 2 1 1 3 7 9 6 5 3 5 6 7 9 9 11 12 12 12 12 12 11 11 11 11 11 11 10 11 12 11 12 12 12 13 14 13 14 14 14 15 14 14 14 15 14 14 14 13 13 14 14 14 14 14 14 14 14 13 13 13 12
3 5 4 4 3 4 1 4 1 2 5 3 2 1 2 3 4 2 2 1 1 3 1 2 5 4 2 2 8 4 2 2 3 1 1 2 1 1 1 2 4 8 8 4 4 5 5 5 8 9 11 11 12 12 12 12 12 11 12 12 12 11 11 11 11 11 11 11 12 13 13 13 14 14 15 15 14 14 14 14 14 14 13 13 13 13 13 13 13 13 14 14 14 14 14 13 13
1 0 0 2 0 4 1 3 5 7 5 5 1 2 1 5 4 3 3 2 2 0 0 2 4 2 5 9 3 2 2 2 0 1 0 1 2 2 2 1 5 5 4 5 4 4 5 6 8 10 11 11 11 11 11 12 11 11 11 12 13 12 11 10 11 11 11 11 11 12 13 13 14 15 15 15 14 14 14 14 14 13 13 13 13 13 13 13 13 13 13 13 13 13 13 13 13
3 1 1 3 4 2 2 1 5 3 4 4 4 2 2 3 5 3 1 2 2 3 1 2 4 3 2 4 1 1 1 3 1 2 0 2 2 3 3 1 4 5 5 4 5 5 5 9 8 8 10 11 11 10 9 10 11 10 9 10 12 12 11 11 10 11 10 11 11 12 13 12 14 15 15 14 14 14 14 14 13 12 12 12 12 12 12 12 12 12 13 13 13 13 13 13 13
4 3 2 1 1 2 6 3 4 2 2 4 4 3 5 5 5 4 1 1 1 2 4 4 3 2 4 2 1 2 2 2 1 1 0 2 4 4 2 2 5 6 5 4 4 5 6 9 9 9 11 11 11 11 9 9 10 8 8 10 12 12 11 11 10 10 10 10 12 13 14 13 13 15 15 14 14 14 14 14 12 11 11 11 11 11 11 12 12 12 12 12 13 13 13 13 13
1 3 3 5 2 5 3 6 4 3 1 5 5 4 7 5 5 4 1 1 2 5 3 3 6 5 6 0 2 1 1 4 0 1 0 4 5 4 1 3 6 5 5 5 4 5 7 11 11 10 9 10 10 10 10 10 10 9 9 10 10 11 11 10 10 10 10 10 12 13 13 13 14 15 15 14 14 13 14 12 11 11 11 10 10 11 11 11 11 12 12 12 12 13 13 13 13
1 1 2 2 1 4 3 3 2 3 0 3 3 6 4 4 3 2 1 3 1 2 2 2 0 6 1 2 2 1 4 2 1 2 3 3 4 5 4 4 5 4 5 4 3 3 7 11 11 10 10 10 7 8 10 10 10 8 8 10 10 9 10 10 9 9 9 10 12 13 12 13 14 15 14 14 13 13 13 12 11 10 10 10 10 10 11 11 11 11 12 12 12 12 12 13 13
3 4 1 6 4 3 3 2 1 2 1 1 1 4 4 5 5 4 1 0 0 1 2 1 2 4 1 4 2 3 2 4 3 4 5 4 5 4 5 4 6 4 4 4 3 3 4 8 9 10 10 9 8 8 10 10 10 9 8 9 10 9 9 9 9 9 9 10 13 13 13 12 13 13 13 13 13 12 12 12 11 10 10 10 10 10 11 11 11 12 12 12 12 11 12 12 13
2 2 1 2 4 5 2 1 5 1 1 1 3 1 1 1 1 2 5 2 1 3 2 0 2 4 3 5 1 2 2 5 3 3 5 4 4 5 8 5 5 7 5 5 4 5 4 6 9 9 9 9 8 7 9 8 8 9 9 9 10 9 9 9 9 10 10 11 13 13 13 12 13 13 12 12 12 13 13 11 10 10 10 10 10 10 11 11 12 12 12 12 11 11 11 12 13
1 5 2 4 5 4 3 2 0 1 0 1 0 0 1 0 4 1 1 2 1 2 0 3 6 5 3 0 1 2 2 3 3 1 3 3 4 6 6 5 5 5 6 5 5 5 5 4 7 7 7 7 8 6 7 6 7 6 7 7 8 7 8 8 9 10 10 12 13 13 13 13 13 13 13 12 12 12 12 11 10 10 10 10 10 10 10 11 12 12 12 12 12 12 12 12 13
1 2 2 3 3 6 4 7 3 1 2 1 1 2 1 3 2 2 1 5 1 4 3 1 3 5 3 1 1 1 3 4 2 2 1 3 5 4 6 5 6 5 5 5 5 4 4 4 4 5 8 7 7 6 5 6 6 6 5 6 7 7 7 8 9 9 10 12 13 13 13 13 13 13 12 12 11 11 12 11 10 10 10 10 10 10 11 11 12 13 13 13 13 13 13 13 14
4 1 5 5 1 4 3 5 4 0 1 1 2 1 1 6 3 4 1 3 1 3 3 3 5 3 1 1 1 1 3 3 3 1 1 4 4 3 5 7 7 6 6 5 5 4 3 3 3 4 5 8 7 8 6 3 5 5 5 6 6 7 8 8 9 8 8 11 12 11 11 11 11 11 12 12 10 10 12 11 10 11 10 10 9 10 11 11 11 12 13 14 14 14 14 15 15
3 3 4 1 1 5 6 3 1 4 2 1 2 2 1 2 3 4 5 4 2 2 0 2 2 4 2 2 0 1 2 3 4 0 2 4 4 6 7 6 7 8 7 6 6 4 2 2 3 4 6 6 4 6 7 6 4 5 3 5 4 6 6 7 9 8 8 9 9 9 9 8 10 10 10 9 10 10 10 9 10 10 10 10 9 10 10 11 11 11 12 14 14 15 15 15 15
0 2 4 4 2 2 1 5 8 4 4 1 1 0 1 2 4 1 5 4 1 1 3 3 0 0 4 6 3 2 2 4 3 2 5 5 7 7 7 7 7 8 8 8 7 8 7 4 1 1 5 5 5 4 4 6 7 5 5 4 5 3 6 9 8 8 9 8 9 8 7 7 8 8 8 7 9 9 8 8 8 8 10 9 8 9 10 11 10 10 11 12 12 14 14 14 14
3 5 4 3 0 4 2 2 1 4 2 2 2 2 4 1 1 1 1 1 1 2 3 1 5 0 1 3 1 2 2 3 4 6 6 7 6 6 7 7 6 6 6 7 7 6 5 6 6 4 1 4 4 6 5 4 4 7 6 4 3 4 5 6 9 7 9 10 9 9 9 7 6 5 8 6 8 8 8 7 8 7 8 9 8 8 9 10 9 9 9 10 10 11 11 11 11
2 3 3 4 2 2 1 1 6 4 2 2 3 1 1 1 1 2 1 3 6 3 4 2 1 2 2 2 2 0 3 2 8 7 8 6 6 6 6 7 6 6 5 6 6 6 6 6 7 5 5 2 3 4 5 7 6 7 7 7 5 4 6 5 7 8 8 8 8 8 8 6 4 4 5 5 8 5 7 9 7 6 6 6 6 6 8 8 9 9 8 9 8 8 8 9 9
2 2 5 4 2 2 3 4 7 1 6 3 1 1 5 1 1 0 2 9 5 3 6 2 7 6 3 1 2 3 3 6 5 10 6 5 3 4 6 5 5 4 5 6 5 6 6 6 6 6 5 6 6 2 3 3 3 6 6 5 5 4 3 5 5 5 4 4 6 6 5 5 4 4 4 5 5 5 6 8 8 7 5 4 4 5 6 8 8 8 8 8 8 8 8 6 6
5 3 5 4 3 1 2 2 4 3 3 4 2 0 5 2 3 1 2 0 1 4 3 2 4 4 4 6 5 6 5 7 8 8 7 5 4 5 4 3 5 4 6 6 6 6 5 5 5 6 6 5 5 2 3 5 6 5 6 6 5 6 4 5 4 4 3 4 5 5 3 3 4 3 4 5 4 6 5 7 8 7 6 4 3 4 4 5 7 8 7 7 7 8 6 5 6
0 4 4 0 5 0 0 2 2 2 7 4 3 0 4 2 1 0 2 3 0 6 6 0 1 4 2 1 4 4 6 6 6 8 7 5 4 3 3 4 3 3 3 3 5 4 5 5 6 4 5 6 4 4 3 5 6 5 4 5 4 4 2 2 4 3 2 4 3 3 3 3 4 3 4 6 6 5 4 5 7 7 6 5 2 2 4 4 7 7 7 7 5 4 5 5 6
1 5 2 3 4 3 1 1 3 4 4 4 3 0 2 2 3 1 5 4 2 4 6 7 10 8 6 3 4 4 5 6 6 6 6 5 4 3 3 3 2 1 1 3 4 6 5 5 5 6 6 4 4 4 3 4 4 4 5 4 4 3 4 3 2 4 3 3 4 3 3 4 4 3 2 3 4 4 4 3 3 3 3 3 2 1 1 3 4 4 4 4 3 4 4 4 5
3 1 2 3 2 1 3 3 5 4 2 6 2 4 4 0 0 2 7 4 5 8 5 5 7 8 8 6 4 3 4 5 5 6 5 4 4 3 3 2 2 1 2 4 4 5 6 5 4 5 6 4 3 4 4 2 4 5 4 4 4 2 3 2 3 4 4 1 3 1 4 4 2 3 4 3 4 5 5 5 4 3 2 2 1 1 1 2 2 2 3 4 3 3 4 4 3
2 1 0 1 3 3 2 1 4 5 2 5 3 3 2 1 1 1 5 5 2 2 4 7 8 7 6 5 5 5 4 4 4 5 4 4 4 3 3 2 3 4 3 2 3 3 5 5 5 4 5 4 4 4 1 3 4 4 5 4 4 4 3 4 3 4 4 4 5 2 3 3 3 2 3 3 3 2 1 1 4 3 2 2 1 1 0 2 1 2 4 3 2 4 4 4 5
7 2 0 0 0 4 5 3 4 2 9 3 2 2 1 1 2 0 2 2 1 3 5 6 6 6 6 7 4 6 5 5 4 4 3 4 3 3 2 2 2 1 1 2 3 4 5 6 5 4 3 2 1 3 6 6 6 7 7 8 8 7 8 8 8 7 7 7 6 5 5 5 4 4 3 3 4 4 4 3 4 3 3 2 1 1 1 2 2 3 3 3 5 5 6 4 5
2 1 1 1 0 1 2 3 3 3 2 2 4 1 3 4 1 2 2 3 2 4 5 7 7 6 5 7 6 5 6 4 5 4 3 2 3 2 2 2 2 1 2 3 4 4 5 5 5 3 1 2 4 6 7 6 6 7 8 8 7 7 9 7 7 7 7 6 7 7 7 7 7 7 7 8 7 8 7 8 6 6 6 6 4 5 4 4 5 5 5 5 5 6 6 6 6
1 1 1 0 1 0 0 1 2 4 1 3 1 3 4 5 2 2 4 5 4 4 6 6 7 7 5 5 5 5 5 5 4 4 3 2 2 4 2 3 2 2 2 3 4 4 4 5 3 3 5 6 6 7 6 6 4 7 6 6 6 9 8 7 8 7 7 7 7 7 7 7 7 7 7 7 9 7 7 8 8 7 7 7 6 7 6 6 6 5 6 7 6 6 7 6 5
2 0 1 1 2 1 1 5 4 2 1 2 3 1 1 3 3 6 1 5 4 5 5 3 7 6 4 4 4 4 5 4 5 4 3 2 3 3 2 2 2 2 3 3 4 4 4 4 4 5 6 7 8 8 8 8 7 9 8 8 7 8 7 7 8 8 8 8 7 8 8 8 8 7 8 7 8 7 8 8 8 7 8 7 6 7 7 8 8 8 8 7 7 6 6 5 5
2 1 1 2 6 3 3 1 3 2 2 4 4 4 1 2 2 6 6 6 5 8 5 4 5 5 4 4 4 2 3 2 3 3 5 4 3 2 2 1 2 2 3 4 3 4 4 5 5 6 7 9 11 8 10 8 10 9 8 8 8 7 7 7 9 8 8 7 8 8 8 7 8 8 8 8 8 9 8 9 7 8 7 7 7 8 8 8 8 7 7 7 6 6 7 7 6
0 1 2 4 6 3 1 6 4 5 3 4 4 1 3 1 5 2 6 7 6 7 6 4 5 4 4 4 3 3 3 2 2 4 3 3 2 1 3 1 1 1 2 2 3 3 5 5 5 6 7 9 11 8 9 6 9 8 9 9 7 7 8 9 8 8 8 7 8 9 8 8 8 8 9 9 9 9 8 9 9 8 7 6 8 8 9 8 8 8 8 6 6 7 8 7 6
1 3 0 5 6 4 3 0 1 7 1 5 2 2 7 6 6 2 6 9 6 6 5 5 4 4 4 4 4 3 2 3 3 3 3 3 2 2 3 1 0 1 1 2 3 5 4 4 4 5 7 10 10 8 8 8 8 9 8 8 8 8 7 9 9 9 8 8 8 9 9 9 9 8 9 9 8 8 8 9 8 8 7 6 5 7 8 8 8 8 6 7 7 7 7 6 7
1 1 3 0 2 2 3 0 3 7 1 4 2 3 8 6 5 2 5 8 12 10 7 6 5 5 4 4 4 4 2 2 4 3 2 2 2 2 2 1 2 1 2 3 5 5 6 5 4 6 7 10 10 9 9 10 8 9 9 9 8 8 8 9 9 8 8 7 7 8 9 8 9 9 8 8 8 8 8 8 8 7 6 5 6 7 7 8 8 9 7 7 7 7 6 7 6
1 2 3 3 2 4 7 1 7 7 1 1 3 1 8 8 6 6 7 7 7 9 8 7 7 6 6 4 5 4 3 3 3 3 3 2 2 2 2 3 2 2 3 3 5 5 7 7 6 9 8 11 10 9 10 10 9 10 10 8 8 8 9 10 8 8 7 7 7 8 9 9 9 9 9 8 9 8 8 8 7 6 6 7 7 7 8 9 8 9 9 7 8 8 7 8 6
4 1 3 1 1 4 6 1 1 3 3 1 5 6 3 4 2 5 5 7 7 7 7 8 8 8 7 6 5 4 4 3 2 3 3 3 2 2 2 2 2 3 3 5 6 6 8 8 8 10 9 12 10 12 12 11 9 10 11 10 9 9 9 9 8 7 8 8 7 7 8 10 10 10 10 9 10 9 8 8 7 7 7 8 8 8 9 7 8 7 9 8 5 6 8 7 7
2 1 3 3 2 1 2 4 1 0 3 3 2 2 6 4 1 4 5 7 6 7 9 9 8 7 6 5 5 5 4 4 4 3 3 3 3 3 3 2 3 4 5 5 5 7 8 7 7 9 9 10 9 11 11 10 10 10 11 9 10 10 9 9 8 7 8 7 7 7 8 9 9 10 10 9 10 9 8 8 8 8 7 8 9 9 9 7 7 7 8 8 8 9 9 8 6
1 1 1 4 1 2 4 0 1 4 0 3 1 5 10 11 5 5 8 6 8 10 11 10 9 7 7 6 6 5 5 5 5 3 3 4 3 2 3 3 4 4 4 6 7 7 8 7 7 8 9 10 10 10 12 12 10 11 10 11 11 10 9 8 7 8 7 7 8 8 9 9 9 10 10 9 9 9 9 9 9 8 7 8 9 9 8 8 8 9 9 8 8 9 7 6 4
3 6 5 2 2 2 2 5 3 8 5 5 5 7 11 11 11 5 6 8 11 12 4 4 6 6 7 7 6 6 5 5 4 3 3 3 3 3 3 3 3 4 5 6 8 8 9 9 8 7 8 9 9 9 8 10 9 8 11 10 11 9 8 8 8 8 7 8 8 9 9 9 9 9 10 9 10 9 9 8 9 8 8 8 10 10 8 8 9 10 11 9 8 9 10 7 7
3 3 2 3 4 5 3 3 4 2 0 6 9 9 8 9 8 9 8 6 7 7 7 7 8 8 8 8 7 7 6 6 4 4 4 4 3 3 3 4 4 5 5 5 6 7 9 10 9 9 7 6 6 8 7 8 10 9 9 10 11 7 8 8 9 8 8 8 9 9 9 8 9 10 9 8 9 9 9 8 9 9 8 9 10 9 7 8 7 6 7 8 11 12 11 10 8
2 1 2 6 2 5 5 0 1 1 4 3 3 4 9 12 11 10 6 5 12 13 11 9 10 10 9 9 8 8 6 2 3 3 3 2 3 3 3 4 5 7 3 4 5 6 6 7 8 9 6 5 5 6 8 7 5 5 11 9 10 7 7 7 9 8 8 8 9 9 8 8 8 9 8 8 9 9 9 8 8 8 8 8 9 7 9 9 9 9 5 9 8 10 9 8 10
3 4 4 2 7 5 8 3 2 1 1 8 5 6 9 9 10 9 6 11 9 12 15 16 15 12 10 9 9 8 6 7 4 4 4 4 3 3 4 3 3 6 5 4 5 6 5 6 6 7 6 6 6 6 8 9 8 7 9 9 10 11 7 7 8 7 7 9 9 8 8 8 8 9 8 8 9 8 9 9 8 7 8 7 10 10 9 10 8 7 6 6 7 5 7 8 10
5 1 2 7 3 1 6 2 2 0 2 3 1 5 9 9 9 14 11 7 5 5 11 11 10 14 15 16 15 13 10 10 8 7 7 5 4 5 4 4 5 6 6 5 5 6 5 5 7 8 8 7 7 7 9 10 11 12 10 11 9 10 10 8 10 8 8 9 10 8 8 8 8 9 8 8 9 9 8 9 7 8 8 7 8 9 9 9 7 7 7 6 4 8 6 8 8
3 6 5 3 3 4 7 5 2 3 2 1 4 7 9 9 13 12 2 2 3 4 3 6 5 6 6 4 5 10 14 12 10 7 6 6 6 6 6 5 5 5 5 5 5 5 5 7 8 8 8 8 8 10 11 13 14 12 13 12 12 12 9 7 9 9 7 7 8 8 7 6 8 9 8 8 8 9 8 8 8 8 8 7 7 8 8 7 6 5 6 7 6 7 7 4 7
4 5 9 8 5 6 4 2 2 5 3 3 2 5 5 4 5 11 6 3 3 2 4 8 7 6 8 10 11 6 5 8 13 12 10 8 7 5 5 5 5 5 5 4 5 5 7 7 8 8 8 9 10 11 11 10 13 14 12 11 10 10 9 7 9 9 7 8 8 4 7 7 7 8 7 8 8 8 9 8 8 8 7 7 6 7 6 7 8 8 6 5 7 5 7 6 5
2 6 8 7 6 4 1 0 3 2 3 2 2 2 10 2 4 4 4 4 9 4 5 7 5 5 7 9 10 10 10 8 4 6 7 8 6 7 7 6 6 6 5 6 6 6 7 9 8 9 9 9 8 9 8 9 9 8 10 10 10 11 12 5 5 5 8 6 6 7 6 6 6 9 8 8 8 7 7 7 7 7 7 7 6 7 8 7 7 6 5 8 6 5 6 9 7
5 2 4 4 4 4 3 2 5 5 0 5 1 2 5 14 5 7 4 4 10 9 10 6 5 6 8 8 9 9 10 9 10 10 8 6 7 8 9 7 6 7 8 7 7 6 8 8 10 9 8 8 7 6 6 3 11 9 11 11 10 9 10 11 8 7 6 6 8 7 7 7 8 7 7 7 6 6 7 7 6 7 8 6 7 7 7 5 6 6 7 7 7 7 7 8 6
3 1 6 4 5 3 4 3 2 0 3 8 1 1 3 7 5 3 1 4 11 16 13 9 9 8 7 7 8 9 10 10 11 11 10 10 10 7 8 8 6 7 7 8 7 8 7 8 9 9 8 7 6 5 6 4 9 11 12 11 11 8 10 9 7 7 8 6 10 7 8 7 7 6 6 6 6 6 6 6 6 7 7 6 6 7 6 7 7 7 7 8 7 7 6 5 7
1 5 7 7 7 6 4 2 2 2 1 8 5 5 4 14 3 2 3 2 10 11 6 7 12 12 9 8 7 8 8 7 7 9 8 7 7 6 6 7 7 5 6 7 7 8 8 8 9 9 7 6 6 7 7 7 9 11 12 12 16 11 9 8 7 8 7 7 10 8 6 6 6 6 6 5 6 5 6 6 6 7 7 6 6 6 6 7 7 7 7 7 7 8 6 7 7
7 5 7 6 8 4 3 6 3 2 6 9 9 10 8 10 2 8 8 8 6 4 2 2 4 6 7 7 10 11 10 9 8 8 8 7 6 6 7 10 8 5 6 8 8 8 8 8 9 9 7 7 7 8 8 8 7 9 12 13 15 15 12 12 11 9 8 8 9 7 6 6 5 6 5 5 5 4 5 5 6 6 6 5 6 6 6 6 6 6 6 7 7 7 6 6 6
6 3 4 5 3 6 4 4 4 1 8 2 9 13 10 11 5 7 7 4 4 4 4 4 7 12 12 10 9 10 10 9 9 9 8 8 7 6 7 9 9 8 7 7 7 7 7 8 8 10 7 8 8 7 7 8 7 8 9 11 13 12 13 11 13 12 10 10 9 9 6 6 5 5 5 5 5 4 5 6 5 6 6 6 7 5 6 6 5 6 7 7 6 6 6 7 6
6 7 7 5 3 4 2 3 2 7 8 1 2 3 2 17 7 5 4 8 8 6 6 6 8 10 10 9 9 9 8 8 10 9 9 9 10 10 9 9 9 9 9 9 8 7 7 8 10 11 8 8 9 7 7 8 8 8 10 10 10 10 10 11 12 12 10 10 9 9 8 7 6 6 5 6 4 4 4 6 6 6 6 6 5 6 5 5 6 6 6 7 7 7 6 6 7
6 8 7 6 1 1 3 6 2 6 6 3 2 1 7 2 7 13 20 13 3 4 6 5 6 10 13 12 10 9 8 9 9 9 10 10 10 9 8 9 10 9 9 9 7 7 7 8 9 12 10 8 9 7 8 9 8 8 8 10 10 10 10 10 10 11 9 9 8 9 9 8 7 7 6 6 4 4 5 5 5 6 5 5 5 5 5 5 6 6 6 7 6 5 6 6 6
9 2 11 9 8 6 5 5 4 6 3 3 4 3 7 5 4 1 5 4 5 4 6 5 4 5 7 8 8 8 9 7 9 10 10 11 10 10 10 10 9 9 9 9 8 8 9 9 10 11 11 9 10 9 8 9 9 8 8 8 9 8 9 9 8 8 10 10 8 8 7 6 8 6 7 5 4 5 5 5 5 6 5 5 5 5 5 5 5 6 6 6 6 5 6 6 6
1 2 6 6 9 7 5 4 3 1 2 3 2 6 4 5 1 4 2 4 3 3 2 2 3 5 9 9 11 11 10 9 8 9 10 9 10 9 9 9 9 9 10 9 10 9 10 10 10 11 13 11 11 11 9 9 9 8 8 9 8 8 7 7 7 6 6 7 8 9 8 7 6 7 5 6 4 5 5 6 5 5 5 5 5 5 5 5 5 6 6 6 6 4 6 7 4
5 6 7 7 2 4 0 2 1 1 2 11 4 8 6 8 6 4 3 2 4 1 1 2 4 5 8 10 10 11 11 10 10 10 10 11 8 8 9 10 10 10 10 12 12 11 12 11 11 11 11 11 11 11 10 8 9 9 8 7 8 8 8 9 10 9 8 6 6 7 8 7 6 6 6 5 6 4 5 5 6 5 5 5 6 5 5 5 5 6 6 6 6 4 5 5 4
8 4 8 2 2 4 4 5 2 1 3 7 3 9 5 1 10 2 0 1 7 4 3 3 4 5 10 9 10 11 12 11 10 9 9 10 10 11 10 9 10 10 10 10 10 8 9 11 12 13 12 13 11 11 11 10 10 9 8 8 7 8 8 8 8 9 8 8 6 6 6 7 7 6 6 5 6 6 5 4 5 5 5 5 5 5 5 5 5 6 5 5 3 4 5 4 4
6 6 3 7 4 2 2 4 3 1 5 6 5 3 8 10 9 2 3 7 10 10 5 4 6 9 10 8 8 7 8 9 11 11 10 10 11 11 11 11 9 9 8 9 9 8 8 8 10 12 13 12 12 10 9 8 8 8 8 8 9 8 7 8 7 8 8 9 8 7 7 7 6 6 7 7 6 6 5 5 5 5 5 5 5 5 4 5 4 5 5 5 4 4 5 4 3
2 2 3 1 3 1 5 7 3 5 4 1 9 3 13 6 7 10 9 12 13 8 5 12 14 13 11 10 10 11 12 11 11 11 11 11 11 11 12 12 11 11 10 9 9 8 10 10 10 10 9 9 9 10 10 10 8 9 8 7 6 6 7 9 9 10 9 8 8 8 7 7 7 6 6 6 6 6 6 6 4 5 5 5 5 4 4 4 5 5 4 5 3 4 4 4 3
2 2 4 1 0 2 4 0 5 5 4 5 4 12 4 6 6 10 12 12 13 12 14 12 11 11 10 10 12 12 12 12 12 11 12 12 11 11 10 9 9 7 7 9 10 12 11 9 10 11 14 12 12 11 10 10 9 9 11 11 10 8 8 7 8 7 8 8 7 7 6 6 6 6 6 6 6 6 5 5 5 5 5 5 5 4 3 4 5 5 5 4 3 4 4 3 3
9 15 14 15 10 5 4 8 1 2 2 6 2 15 6 3 3 8 8 3 3 8 11 11 10 11 12 11 11 12 12 11 11 11 11 11 10 10 8 8 7 9 10 11 9 9 10 11 11 11 11 12 13 12 11 11 10 11 12 11 9 7 8 8 8 8 8 8 8 7 7 6 7 5 5 6 6 5 4 5 5 5 5 5 4 4 4 4 5 5 4 3 4 3 3 2 2
Wind_Direction
336 332 313 310 58 102 58 1 107 321 62 14 51 32 220 339 197 51 346 332 62 276 216 3 2 15 108 156 131 128 10 136 282 124 190 234 275 267 290 137 132 134 149 154 153 133 132 137 165 153 148 133 129 127 122 117 113 111 109 108 107 104 107 111 108 104 100 104 109 107 102 102 98 96 92 88 84 80 76 71 66 59 54 53 51 52 53 53 53 52 52 52 50 48 47 46 47
317 324 312 286 142 92 307 125 96 20 40 64 38 78 163 300 45 117 113 154 196 207 254 87 69 85 93 116 139 126 29 24 236 182 359 256 327 307 14 127 140 138 152 151 149 143 141 163 171 157 151 137 135 133 129 124 122 120 119 115 111 107 102 103 95 94 96 99 104 105 105 105 104 99 94 88 84 81 77 72 67 60 54 54 52 53 53 54 53 53 52 52 50 48 46 45 45
326 348 354 33 30 84 94 40 171 58 84 73 286 191 339 65 126 223 222 200 225 240 319 72 117 74 47 56 38 49 221 359 7 17 121 348 102 184 347 184 160 146 153 151 146 146 145 157 160 149 152 140 138 137 133 131 130 130 127 122 118 115 110 110 108 105 103 104 105 108 109 109 107 100 95 90 87 83 77 73 68 62 56 54 54 54 53 53 54 53 54 53 52 49 48 46 45
12 359 104 67 246 27 63 32 88 120 107 179 60 295 208 157 193 193 230 241 267 288 55 22 59 294 96 69 136 59 50 2 358 247 328 283 200 245 287 192 168 144 142 150 156 147 148 154 150 154 150 147 142 140 138 135 135 135 131 128 124 119 117 113 117 112 108 110 112 112 113 109 105 100 94 92 88 84 81 74 68 61 58 56 56 56 56 56 56 56 55 55 54 52 49 47 45
44 355 82 95 104 1 98 113 132 99 124 188 142 262 235 191 176 223 258 273 332 76 71 118 73 344 83 105 14 100 240 287 339 72 247 266 278 261 293 223 149 153 157 158 153 148 150 153 150 151 152 150 150 143 142 140 139 138 132 128 126 123 121 121 120 118 112 115 117 116 114 111 105 100 97 94 90 87 83 78 71 64 60 59 59 59 59 59 59 59 58 57 57 54 51 49 47
62 47 13 85 64 157 48 43 40 61 216 152 119 209 211 193 159 201 205 294 321 61 108 65 151 173 31 359 83 69 310 67 293 352 91 300 302 306 289 190 156 169 159 155 154 151 154 160 151 159 158 155 152 149 146 143 139 135 132 130 129 126 124 124 123 123 122 121 121 119 113 113 110 104 100 99 97 92 87 82 76 71 66 63 61 62 63 62 62 61 61 59 59 57 54 52 50
11 43 355 24 14 52 145 116 127 153 313 149 166 176 198 221 181 133 173 35 359 47 9 121 118 98 80 258 16 83 290 252 11 302 225 301 320 327 295 156 163 167 157 159 162 156 159 158 157 158 160 162 155 154 149 150 143 140 138 132 130 128 126 124 124 123 124 122 119 117 122 119 117 109 109 107 105 101 93 89 85 78 74 68 63 63 63 64 64 63 61 60 58 57 55 54 54
69 109 325 100 8 54 56 160 136 166 145 151 203 141 221 212 169 108 152 91 296 86 9 157 266 99 275 51 138 276 7 23 318 306 317 339 352 354 53 128 152 163 160 146 147 159 159 158 159 159 157 159 161 159 152 154 147 143 140 136 133 131 129 126 124 125 121 121 118 117 119 122 119 119 118 115 111 104 101 96 90 85 78 71 66 62 63 64 64 63 63 62 60 57 56 55 56
356 84 10 65 55 33 61 76 105 226 71 48 180 214 206 182 169 118 59 256 78 68 22 343 182 79 240 45 89 290 320 324 334 355 6 1 14 12 55 86 140 146 125 124 118 137 145 159 156 158 158 162 167 166 160 157 149 150 143 138 136 136 133 129 128 119 117 123 122 126 130 128 123 119 120 119 115 108 101 98 94 89 81 73 66 63 61 61 62 62 62 62 62 60 57 56 57
23 83 325 111 129 69 44 12 83 182 167 232 148 148 175 223 98 85 143 79 135 89 14 8 107 110 140 99 20 349 317 330 310 15 3 9 357 41 59 54 107 123 106 111 121 134 135 152 152 157 163 165 161 168 157 163 152 152 145 142 141 142 137 133 132 127 128 129 129 130 131 133 129 125 124 123 117 112 107 102 98 91 82 75 68 63 60 58 59 60 60 60 60 59 59 57 58
7 9 143 69 44 121 135 214 216 35 161 310 303 270 254 185 105 67 32 146 335 119 147 28 44 119 85 300 185 254 293 357 43 319 337 13 22 39 62 52 63 101 114 106 114 111 125 134 148 153 158 163 160 167 156 152 151 151 144 144 141 138 139 131 124 129 132 133 136 137 138 140 137 133 131 129 126 117 112 110 102 91 85 79 72 67 63 60 59 58 57 56 56 56 56 56 57
22 13 2 105 133 153 211 140 182 222 304 345 135 319 313 106 85 69 18 98 334 50 85 131 180 147 60 92 246 270 321 357 343 276 276 50 45 24 48 47 59 60 84 93 83 95 104 123 136 157 154 160 147 145 146 149 157 147 148 144 142 136 137 132 129 131 133 136 141 142 144 144 144 138 135 135 126 121 118 116 107 96 91 83 77 71 68 66 63 60 58 56 55 56 58 58 54
109 108 79 76 171 93 161 107 196 154 17 268 181 310 18 50 105 146 142 114 30 68 28 358 137 86 151 181 255 340 8 320 318 282 149 70 60 47 52 57 59 60 54 59 71 71 89 102 109 160 162 151 145 144 131 134 149 151 158 145 145 139 141 137 133 133 135 142 147 148 149 149 148 142 141 141 130 122 124 121 112 103 96 89 81 77 74 74 71 66 61 58 57 60 62 60 54
109 175 120 118 59 112 129 165 31 125 256 248 264 286 12 112 229 169 122 73 356 82 314 259 105 133 95 79 254 324 269 291 325 133 97 62 55 49 51 49 51 49 39 52 55 53 72 118 150 180 165 147 146 152 149 156 149 156 134 83 67 141 136 135 136 135 138 144 149 152 152 151 144 142 142 136 126 127 127 121 113 109 103 96 88 84 83 82 80 72 66 62 62 64 64 61 56
90 134 85 113 46 80 232 118 192 148 218 207 261 214 65 6 110 188 123 127 69 7 292 42 195 56 218 138 247 222 267 302 323 107 81 60 46 46 44 48 52 44 37 34 30 29 11 336 165 199 130 135 157 161 159 173 164 167 148 101 60 73 141 136 139 143 139 142 149 150 145 131 128 133 137 135 130 128 126 118 118 116 114 105 98 94 92 89 86 81 71 64 61 62 65 64 62
145 81 80 99 16 124 221 108 76 113 209 181 274 149 77 328 167 102 229 149 192 352 33 334 9 117 92 120 194 199 289 335 98 99 81 58 45 42 40 34 40 39 40 30 25 21 7 10 5 2 46 150 181 160 159 167 186 162 158 168 96 114 102 131 144 147 144 147 151 149 142 129 118 127 140 134 132 134 127 128 128 120 120 113 107 100 96 94 91 85 77 70 62 54 50 50 57
48 81 52 32 96 96 225 121 144 193 239 253 288 216 133 254 293 90 17 53 85 357 38 357 340 49 59 124 156 102 4 70 100 85 73 51 40 31 26 22 12 27 14 21 20 5 4 10 6 13 354 7 208 193 167 173 176 156 156 179 163 164 137 151 148 142 141 142 146 146 140 134 138 141 150 143 141 138 140 140 129 124 116 115 110 100 93 89 86 81 77 71 59 48 38 40 38
58 60 118 54 162 96 197 172 188 216 131 219 234 170 111 138 340 149 48 33 84 58 68 357 37 46 70 70 63 60 35 74 88 93 73 58 34 39 37 10 22 5 355 352 1 3 3 2 352 351 356 357 338 233 152 160 125 162 159 186 177 190 147 136 143 140 136 123 134 141 148 148 155 162 156 150 155 146 148 149 134 122 118 111 111 99 90 82 78 70 70 65 55 43 46 46 41
88 104 81 164 200 262 156 192 196 129 176 175 207 81 132 193 144 220 92 239 101 59 20 28 73 55 48 39 39 46 54 63 84 91 88 80 61 67 58 30 29 6 3 353 343 350 354 340 352 350 346 343 335 305 179 183 175 175 168 175 189 178 153 144 142 140 145 146 147 153 132 159 163 169 158 164 161 153 148 155 133 125 124 123 120 106 94 87 78 72 63 62 65 64 64 61 54
128 109 75 240 211 251 253 177 176 210 142 130 130 64 109 209 149 269 163 182 98 151 153 264 168 160 119 55 50 49 59 68 71 91 91 87 74 70 58 51 36 17 339 338 318 324 350 351 338 332 335 330 343 326 233 177 167 174 164 173 180 178 132 130 156 162 169 141 145 145 173 168 174 174 167 161 144 142 141 139 125 120 126 128 126 83 78 62 70 60 50 56 66 63 75 70 66
294 68 152 185 190 101 219 169 140 133 126 152 121 119 118 251 217 111 161 109 247 264 220 164 188 173 162 143 101 74 69 74 72 76 87 86 82 73 80 86 96 7 315 305 337 335 337 337 335 333 329 327 335 321 305 178 159 176 165 166 155 149 150 129 95 107 64 96 130 157 158 175 179 155 129 162 145 135 135 128 114 113 122 121 112 110 59 49 46 44 43 53 68 77 72 70 80
75 73 214 161 114 87 230 217 190 133 160 110 116 119 196 106 52 135 156 179 221 208 217 200 158 156 152 143 127 88 87 92 89 85 87 89 84 73 52 35 12 24 340 17 332 326 326 325 323 315 319 318 324 324 281 220 148 173 144 141 136 134 113 72 58 79 88 105 75 154 135 150 165 140 142 163 171 160 154 151 133 119 115 139 126 135 54 61 42 47 67 73 52 58 66 71 66
95 309 360 222 220 139 223 213 219 137 120 134 147 212 72 100 218 191 168 184 235 224 141 146 143 150 147 126 122 109 110 105 106 109 108 95 82 68 58 41 42 30 6 344 317 309 313 315 317 320 310 324 331 277 54 68 77 69 65 57 109 95 90 90 76 66 55 36 57 354 83 86 90 129 155 150 151 92 41 127 124 115 117 148 141 122 166 85 74 49 70 65 53 56 45 37 51
101 160 287 18 161 150 172 195 154 146 117 183 198 75 177 130 223 136 164 305 233 116 114 117 121 122 125 113 123 134 132 128 124 119 119 120 120 112 121 74 77 21 353 322 318 310 306 307 301 305 294 313 280 68 76 70 75 74 73 66 64 77 71 61 64 62 58 51 41 46 59 51 51 51 57 63 62 50 63 45 51 51 51 49 68 73 165 86 71 71 70 51 54 48 50 35 40
82 75 205 263 35 260 205 178 152 149 172 117 96 120 240 179 204 104 231 188 165 129 105 105 112 106 99 112 122 123 120 118 115 123 99 103 120 120 70 62 39 17 18 336 320 324 320 308 302 297 277 165 100 86 77 77 71 75 73 68 62 71 74 65 66 62 65 56 47 47 54 64 58 51 48 54 55 57 57 48 42 39 38 33 28 34 31 60 64 57 64 64 56 54 45 31 35
155 191 160 327 265 315 111 191 209 186 158 141 81 252 277 243 323 228 196 198 187 119 99 115 110 105 114 123 129 130 131 135 137 114 126 135 96 86 66 55 15 32 355 324 331 325 318 316 337 40 99 105 95 79 80 78 67 77 65 71 71 70 69 66 69 61 62 60 56 53 54 69 68 74 72 64 67 57 62 60 52 39 44 31 36 43 27 51 54 54 52 46 49 52 49 27 36
158 193 205 214 262 354 222 193 230 238 272 173 175 266 255 342 154 276 195 198 159 110 118 116 115 121 129 124 116 121 129 150 143 148 100 70 58 85 78 47 31 7 355 350 341 331 323 345 43 71 81 93 87 86 90 85 80 73 68 70 62 67 71 69 65 64 55 52 57 59 58 60 77 73 76 75 76 67 59 62 55 53 47 35 43 50 45 53 49 44 42 46 40 44 47 35 39
110 154 309 318 332 241 216 266 269 98 274 173 169 236 277 313 107 231 184 192 166 142 144 136 124 136 136 130 118 124 112 137 138 123 117 104 111 91 52 31 3 7 6 339 323 314 354 17 53 75 86 93 93 90 90 79 80 77 73 73 66 67 74 71 68 61 59 52 52 59 62 62 68 66 65 68 71 70 64 61 58 56 54 44 47 53 49 49 57 51 43 42 43 50 44 34 25
258 58 333 301 348 353 244 200 203 153 237 152 156 343 297 205 221 263 181 151 159 146 153 156 147 150 144 135 129 127 141 140 130 110 143 157 162 133 106 47 354 353 316 290 313 12 27 22 50 61 83 86 90 84 90 77 86 84 80 76 73 74 70 70 73 70 65 59 54 57 57 61 62 69 66 64 64 66 66 64 60 56 54 58 62 65 67 59 55 49 45 42 38 45 44 31 31
111 38 117 344 358 340 310 288 143 151 247 144 154 290 274 259 245 303 157 148 134 137 165 175 168 160 158 150 145 134 123 106 107 142 155 141 116 105 104 88 314 35 328 2 41 44 26 39 55 62 72 83 85 81 84 92 83 87 83 82 75 73 74 82 76 73 71 67 66 62 66 66 68 68 76 72 65 67 64 63 59 54 47 51 61 64 62 61 59 51 39 48 41 44 43 32 37
180 279 59 142 25 279 297 355 171 153 173 167 81 200 281 270 280 225 181 161 158 175 184 184 175 177 172 167 153 153 176 158 154 158 156 133 107 97 104 65 46 52 48 56 56 57 59 53 60 71 75 86 87 86 78 87 83 87 86 81 80 78 79 77 74 75 74 71 72 71 67 68 73 73 70 81 74 71 69 67 58 55 52 52 57 53 67 60 58 52 35 43 41 40 38 39 42
26 39 297 326 139 276 301 306 153 162 313 102 97 320 247 274 269 190 185 173 171 179 187 189 184 183 181 170 157 151 147 142 144 138 149 146 114 114 98 80 53 62 72 84 81 73 71 62 71 86 82 87 83 85 90 82 85 86 83 77 78 72 74 74 70 67 70 72 66 69 67 67 66 67 68 68 75 66 66 68 58 53 55 60 56 53 55 56 54 55 43 38 47 36 35 35 31
349 126 272 282 83 263 343 79 288 149 120 340 169 216 324 303 297 190 185 177 185 185 195 196 194 188 181 173 163 154 133 111 109 138 154 144 128 109 94 79 75 70 84 92 98 91 85 82 77 91 94 94 95 90 85 84 87 89 86 78 75 71 73 75 69 68 68 68 67 68 72 73 71 71 71 72 79 74 68 68 63 56 53 60 55 49 52 46 49 58 51 42 48 58 45 37 34
312 360 214 205 199 270 281 301 268 229 133 205 259 222 238 233 291 208 206 191 185 204 206 203 198 191 183 171 165 161 155 152 157 160 160 139 120 113 100 104 87 87 83 91 93 99 100 97 97 98 95 94 101 97 92 91 88 82 86 84 77 72 67 70 69 69 70 67 67 68 69 72 73 76 75 76 79 75 72 69 65 57 58 63 63 54 53 48 49 49 60 43 42 48 43 37 34
209 171 295 299 282 214 241 318 243 128 346 194 218 231 261 269 255 226 212 201 200 216 209 201 195 189 182 179 173 170 166 167 184 183 158 138 125 114 110 101 97 96 99 102 102 98 103 103 103 101 105 102 95 98 103 98 90 87 84 83 76 71 66 63 68 70 66 68 68 68 68 70 69 70 73 74 81 78 71 66 65 56 59 67 68 61 50 43 48 45 52 47 47 53 55 40 24
190 170 183 171 188 245 205 237 267 175 199 228 200 223 244 249 261 240 237 213 208 223 210 191 205 197 186 186 180 171 174 180 193 180 156 145 143 135 121 108 98 98 107 110 114 115 111 108 101 102 106 114 115 110 108 103 97 95 94 87 75 67 68 69 62 68 68 66 63 68 67 69 68 71 69 70 77 78 77 70 70 62 62 66 64 58 46 41 40 45 39 43 47 49 40 28 21
114 100 117 204 205 278 287 269 260 187 86 233 230 238 250 265 250 252 226 213 228 232 220 210 202 198 194 190 182 175 172 173 198 176 155 151 150 133 127 115 114 99 102 121 118 120 126 125 123 113 117 117 117 117 106 105 108 104 82 84 88 78 77 75 71 64 66 64 61 64 65 67 68 71 67 71 74 76 72 70 69 60 58 64 65 63 57 54 44 49 53 41 43 46 29 13 9
174 185 181 268 160 252 243 236 340 320 171 289 251 252 258 258 264 252 237 181 225 214 217 217 206 202 196 183 177 177 173 130 132 122 136 130 146 135 132 129 133 117 98 118 117 119 124 123 123 121 114 105 97 99 108 93 78 93 113 105 103 90 81 78 82 68 70 68 61 62 64 64 66 67 67 69 70 73 76 70 65 64 63 69 74 69 59 52 45 41 34 61 33 56 45 13 3
231 203 230 256 263 246 289 266 302 280 129 259 289 276 265 265 264 264 213 209 222 210 205 209 197 195 190 186 176 165 160 165 165 163 166 166 160 152 139 137 128 120 121 108 118 115 107 110 110 109 108 101 87 92 100 105 99 89 99 104 102 99 71 78 83 79 73 75 65 61 61 63 67 66 64 67 74 71 75 75 69 69 62 66 71 59 55 53 47 49 42 83 75 46 63 27 23
220 197 148 226 237 136 285 288 348 319 166 267 22 313 279 273 261 257 246 210 247 220 216 221 198 190 188 189 179 168 166 163 170 172 172 177 166 158 148 141 135 127 123 118 116 118 111 105 107 106 108 105 104 100 103 98 100 100 88 99 89 91 106 91 83 74 72 73 65 60 55 62 64 70 65 69 73 70 72 76 75 68 66 60 73 75 61 58 49 48 50 49 83 79 45 40 26
249 196 192 213 210 236 188 252 315 318 328 61 319 294 279 246 254 264 329 319 262 256 249 230 216 204 182 134 149 171 168 166 164 168 172 171 162 168 159 144 134 133 132 136 133 124 116 115 110 111 109 109 109 116 117 118 110 100 101 94 98 92 79 86 88 68 65 71 76 57 51 56 65 69 64 67 74 76 72 75 76 73 72 61 69 77 72 67 64 59 56 66 51 97 77 73 35
264 230 193 202 188 212 267 353 17 9 333 345 76 322 293 279 256 253 282 342 268 257 206 220 200 175 158 172 175 172 170 172 165 169 172 171 164 159 151 146 137 137 136 130 126 126 123 112 116 113 110 116 123 125 129 128 125 128 126 120 113 105 96 88 91 104 90 78 79 79 61 54 66 71 66 70 70 73 71 68 71 77 75 71 70 79 80 69 54 55 41 67 66 44 105 78 60
178 268 193 204 192 189 170 216 67 292 253 302 35 207 284 287 260 263 259 245 255 267 229 228 201 186 181 180 174 173 168 168 165 155 159 162 168 157 156 154 144 139 135 127 121 126 122 125 121 125 128 125 130 133 136 130 114 113 116 117 118 119 117 92 99 93 101 93 89 78 74 60 58 73 64 63 66 68 74 72 74 75 74 71 65 72 69 67 63 58 50 58 55 57 63 74 56
234 244 149 147 134 170 203 148 178 236 253 297 28 121 267 292 252 243 262 234 265 263 243 226 213 201 198 185 176 171 171 170 165 169 167 166 165 163 159 154 147 145 138 133 131 134 133 135 133 131 127 129 133 134 133 141 121 118 111 108 109 112 113 124 120 108 95 102 90 82 78 65 57 58 69 64 66 70 74 73 74 75 75 67 70 69 74 71 72 57 56 59 60 55 62 81 75
219 182 125 142 160 161 116 116 147 359 22 283 306 339 308 254 274 305 263 248 258 254 243 212 208 209 200 184 178 175 174 172 167 165 170 170 168 168 155 149 145 141 145 139 141 138 136 134 129 127 127 129 125 121 119 116 122 123 120 120 110 106 114 116 114 107 104 103 93 82 78 72 68 60 61 71 65 70 71 80 78 80 78 74 75 77 72 70 71 73 61 58 61 57 57 72 76
254 130 86 78 75 66 94 94 82 331 37 255 188 186 220 274 218 207 345 236 265 259 261 207 207 200 190 180 178 174 170 169 170 163 158 159 161 162 154 134 139 150 140 127 128 134 137 133 130 127 126 125 122 114 115 119 124 125 123 127 124 126 123 117 114 114 107 105 97 91 86 83 80 74 64 64 72 67 76 75 77 77 78 78 75 79 79 73 68 67 63 68 65 68 50 62 79
128 84 66 27 42 31 21 61 83 34 265 247 182 206 171 281 216 197 165 215 205 269 303 279 197 188 190 187 176 173 171 167 163 157 157 155 158 153 151 149 142 136 131 134 139 142 143 135 132 125 129 120 117 118 125 126 126 127 129 133 132 134 134 131 126 115 115 109 109 106 102 100 89 87 84 72 70 73 75 73 76 76 75 75 73 68 67 74 71 75 73 68 64 68 64 67 65
127 93 118 59 342 15 30 344 40 141 264 248 204 195 181 217 292 277 246 267 228 206 239 228 201 199 192 185 182 175 167 164 158 153 154 149 147 157 159 150 149 145 135 137 144 142 140 132 129 124 125 125 120 122 123 124 126 125 127 132 132 135 138 137 131 132 136 128 127 124 122 110 99 91 85 84 70 66 76 73 73 74 69 67 66 69 67 71 74 73 66 66 65 64 59 61 57
85 91 83 132 252 33 299 24 273 207 232 295 32 108 9 242 233 255 280 271 257 222 230 227 206 203 190 184 178 170 164 158 159 159 154 159 162 165 167 159 150 155 155 151 153 146 137 135 137 131 135 135 128 131 131 129 131 135 138 135 133 135 136 134 134 134 143 137 139 134 134 125 125 106 99 95 83 77 83 81 73 72 72 68 74 71 68 67 72 73 74 67 62 59 62 64 65
117 143 152 128 143 222 279 261 262 309 291 274 350 85 256 298 278 237 249 253 263 250 243 242 208 193 186 178 168 163 165 165 164 159 162 165 166 169 169 162 159 160 157 155 153 146 141 142 144 138 143 142 135 134 138 136 139 142 144 142 141 140 139 140 141 140 146 141 143 140 140 139 134 130 129 116 126 103 86 93 93 87 84 80 78 77 71 66 71 77 74 71 66 64 65 64 66
203 97 151 186 147 150 229 188 204 222 222 289 275 124 233 133 243 296 264 296 279 275 257 249 215 182 165 154 149 152 161 170 163 165 169 169 170 170 169 166 164 163 160 158 156 153 147 149 149 146 142 149 144 147 145 145 145 147 148 145 142 143 142 143 144 144 144 142 143 136 134 135 130 136 129 135 118 107 106 94 90 88 81 78 75 73 72 71 75 78 74 74 63 59 61 62 54
233 162 63 95 217 150 229 197 171 250 324 324 204 211 189 184 254 282 281 299 309 344 9 96 101 118 136 147 164 170 171 168 168 167 170 171 172 171 168 170 167 166 166 163 162 161 157 156 155 154 150 153 152 150 155 152 151 149 150 148 148 144 139 135 132 135 137 139 143 139 136 135 133 130 131 124 122 113 108 99 91 90 87 82 78 78 75 74 72 75 68 63 60 45 65 58 52
207 108 195 208 159 146 157 19 38 111 44 255 150 281 289 299 294 248 310 330 294 360 31 100 132 147 152 168 172 174 173 169 173 174 173 172 172 176 176 173 170 171 172 173 170 168 161 156 156 154 154 154 156 156 154 155 151 149 151 148 146 146 148 148 147 145 139 134 131 132 132 136 132 132 131 127 120 106 104 107 102 95 87 85 78 75 77 78 74 73 74 68 63 58 70 67 53
97 184 228 111 94 111 136 228 337 66 206 273 136 229 274 116 273 346 18 303 268 263 230 185 161 167 178 181 178 178 177 174 173 174 173 173 177 177 179 180 176 178 173 169 167 164 163 161 160 156 159 159 160 157 157 159 155 151 150 151 152 153 151 145 143 143 141 135 131 127 128 131 141 143 131 126 118 116 111 108 106 98 93 83 84 78 81 82 83 78 82 74 77 71 70 58 48
152 194 199 129 242 219 292 89 268 247 253 278 276 246 254 189 238 56 237 225 241 234 208 176 194 197 196 182 179 174 164 166 175 176 175 178 180 182 181 181 178 172 173 169 160 159 161 162 163 161 162 163 157 155 151 151 152 150 155 156 155 152 149 144 142 140 142 140 142 145 144 142 133 132 127 126 122 122 121 112 110 107 96 93 85 83 84 80 85 87 75 76 58 71 74 61 37
43 79 88 75 102 167 134 202 177 112 258 49 283 76 259 176 218 185 216 211 223 212 181 216 208 198 188 184 178 176 179 180 179 180 180 180 182 182 180 177 174 173 171 169 161 160 166 167 163 160 152 151 150 153 156 155 155 150 149 147 153 154 152 152 152 149 148 148 149 147 144 142 144 132 130 129 129 132 131 126 124 118 110 102 96 88 92 97 90 89 90 78 65 68 64 63 35
145 121 190 140 314 237 117 336 148 175 184 201 276 296 270 251 209 179 207 205 214 194 206 214 211 201 194 186 180 180 181 180 182 181 179 179 181 180 177 174 171 164 165 165 169 170 169 165 166 165 161 161 160 160 158 159 153 155 154 159 160 158 156 151 147 149 143 147 149 145 146 143 129 134 136 136 138 139 137 137 133 128 120 115 112 110 112 110 101 96 85 85 72 73 73 52 61
192 175 187 180 144 149 167 254 55 134 143 240 165 261 259 267 177 211 204 216 222 217 208 216 209 194 191 186 186 181 180 185 181 180 177 178 174 175 171 168 165 164 171 172 170 165 170 174 172 167 164 167 162 164 163 159 160 158 162 161 161 157 154 151 148 149 148 152 154 151 146 139 138 141 138 140 140 139 141 137 134 129 120 114 115 123 123 115 110 101 89 85 76 78 85 69 71